SBI8727 UIII-UNTT

Flight info

Callsign SBI8727
Flight time N/A
Altitude 36000
Route BD5V/12 BD R497 RO A229 ROTLI A300 BINBA
Aircraft A20N/M-SDE2E3FGHIRWXY/LB1

Departure

Time 2026-05-09 13:51
Airport Irkutsk International Airport (UIII)

Arrival

Time N/A
Airport Tomsk Kamov Airport (UNTT)
Time Latitude Longitude Altitude Speed Heading
2026-05-09 13:34 52.27162 104.36636 1599 ft 0 kts 199°
2026-05-09 13:43 52.27163 104.36637 1599 ft 0 kts 199°
2026-05-09 13:43 52.27150 104.36629 1600 ft 4 kts 198°
2026-05-09 13:44 52.27149 104.36629 1600 ft 0 kts 198°
2026-05-09 13:44 52.27141 104.36625 1601 ft 1 kts 198°
2026-05-09 13:44 52.27121 104.36619 1602 ft 3 kts 174°
2026-05-09 13:45 52.27108 104.36631 1603 ft 2 kts 130°
2026-05-09 13:45 52.27093 104.36677 1604 ft 4 kts 110°
2026-05-09 13:45 52.27082 104.36724 1605 ft 5 kts 110°
2026-05-09 13:45 52.27066 104.36795 1606 ft 6 kts 110°
2026-05-09 13:46 52.27051 104.36862 1608 ft 5 kts 110°
2026-05-09 13:46 52.27038 104.36923 1609 ft 5 kts 110°
2026-05-09 13:46 52.27027 104.36971 1609 ft 4 kts 110°
2026-05-09 13:46 52.27013 104.37034 1610 ft 6 kts 110°
2026-05-09 13:47 52.26995 104.37108 1610 ft 7 kts 111°
2026-05-09 13:47 52.26994 104.37201 1609 ft 9 kts 57°
2026-05-09 13:47 52.27026 104.37273 1606 ft 9 kts 54°
2026-05-09 13:47 52.27061 104.37354 1604 ft 7 kts 54°
2026-05-09 13:48 52.27090 104.37419 1601 ft 6 kts 54°
2026-05-09 13:48 52.27099 104.37440 1601 ft 0 kts 54°
2026-05-09 13:49 52.27100 104.37442 1601 ft 1 kts 54°
2026-05-09 13:49 52.27119 104.37486 1599 ft 7 kts 54°
2026-05-09 13:49 52.27158 104.37573 1596 ft 12 kts 53°
2026-05-09 13:49 52.27189 104.37664 1595 ft 6 kts 76°
2026-05-09 13:50 52.27188 104.37685 1595 ft 2 kts 110°
2026-05-09 13:50 52.27187 104.37691 1595 ft 0 kts 112°
2026-05-09 13:50 52.27145 104.37850 1600 ft 53 kts 113°
2026-05-09 13:50 52.26762 104.39307 1648 ft 152 kts 108°
2026-05-09 13:51 52.26317 104.40923 2308 ft 160 kts 110°
2026-05-09 13:51 52.25874 104.42554 3147 ft 163 kts 115°
2026-05-09 13:51 52.25072 104.43775 3831 ft 172 kts 162°
2026-05-09 13:51 52.23924 104.43588 4335 ft 182 kts 211°
2026-05-09 13:52 52.23122 104.42099 4841 ft 189 kts 252°
2026-05-09 13:52 52.23114 104.39951 5279 ft 205 kts 291°
2026-05-09 13:52 52.23633 104.37780 5909 ft 221 kts 291°
2026-05-09 13:52 52.24108 104.35407 6525 ft 239 kts 289°
2026-05-09 13:53 52.24589 104.32789 6922 ft 263 kts 288°
2026-05-09 13:53 52.25096 104.29951 7033 ft 269 kts 288°
2026-05-09 13:53 52.25614 104.27020 7039 ft 269 kts 288°
2026-05-09 13:53 52.26118 104.24170 7045 ft 269 kts 288°
2026-05-09 13:54 52.26624 104.21316 7044 ft 269 kts 288°
2026-05-09 13:54 52.27142 104.18388 7048 ft 269 kts 288°
2026-05-09 13:54 52.27647 104.15536 7047 ft 269 kts 288°
2026-05-09 13:54 52.28157 104.12663 7303 ft 278 kts 288°
2026-05-09 13:55 52.28680 104.09706 8318 ft 280 kts 287°
2026-05-09 13:55 52.29181 104.06863 9486 ft 275 kts 287°
2026-05-09 13:55 52.29639 104.04260 10408 ft 275 kts 288°
2026-05-09 13:55 52.30161 104.01280 11095 ft 288 kts 288°
2026-05-09 13:56 52.30698 103.98229 11797 ft 298 kts 288°
2026-05-09 13:56 52.31256 103.95039 12704 ft 301 kts 288°
2026-05-09 13:56 52.31801 103.91923 13541 ft 305 kts 288°
2026-05-09 13:56 52.32353 103.88769 14353 ft 309 kts 288°
2026-05-09 13:57 52.32906 103.85605 15155 ft 312 kts 288°
2026-05-09 13:57 52.34108 103.78701 16776 ft 321 kts 288°
2026-05-09 13:57 52.34716 103.75197 17550 ft 325 kts 288°
2026-05-09 13:58 52.35327 103.71664 18320 ft 329 kts 288°
2026-05-09 13:58 52.35943 103.68096 19068 ft 333 kts 288°
2026-05-09 13:58 52.36557 103.64528 19641 ft 337 kts 289°
2026-05-09 13:58 52.37170 103.60966 19936 ft 338 kts 289°
2026-05-09 13:59 52.37783 103.57391 19979 ft 338 kts 289°
2026-05-09 13:59 52.38408 103.53749 19979 ft 337 kts 289°
2026-05-09 13:59 52.39011 103.50218 19977 ft 337 kts 289°
2026-05-09 13:59 52.39624 103.46634 19987 ft 337 kts 289°
2026-05-09 14:00 52.40228 103.43089 19985 ft 337 kts 289°
2026-05-09 14:00 52.40428 103.41914 19981 ft 337 kts 289°
2026-05-09 14:00 52.41465 103.35810 20228 ft 344 kts 289°
2026-05-09 14:00 52.42092 103.32092 21032 ft 345 kts 288°
2026-05-09 14:01 52.42725 103.28314 21866 ft 345 kts 288°
2026-05-09 14:01 52.43372 103.24481 22600 ft 348 kts 289°
2026-05-09 14:01 52.44123 103.20940 23260 ft 349 kts 295°
2026-05-09 14:01 52.45107 103.17499 23923 ft 350 kts 300°
2026-05-09 14:02 52.46300 103.14230 24555 ft 352 kts 304°
2026-05-09 14:02 52.47598 103.10961 25183 ft 355 kts 305°
2026-05-09 14:02 52.48968 103.07550 25784 ft 358 kts 305°
2026-05-09 14:02 52.50309 103.04206 26361 ft 361 kts 305°
2026-05-09 14:03 52.51649 103.00857 26923 ft 363 kts 305°
2026-05-09 14:03 52.53037 102.97379 27479 ft 366 kts 305°
2026-05-09 14:03 52.54407 102.93942 28016 ft 368 kts 305°
2026-05-09 14:03 52.55757 102.90546 28517 ft 371 kts 305°
2026-05-09 14:04 52.57149 102.87035 29022 ft 374 kts 305°
2026-05-09 14:04 52.58528 102.83554 29496 ft 376 kts 305°
2026-05-09 14:04 52.59939 102.79990 29981 ft 379 kts 305°
2026-05-09 14:04 52.61360 102.76388 30442 ft 381 kts 305°
2026-05-09 14:05 52.62765 102.72824 30894 ft 383 kts 305°
2026-05-09 14:05 52.64213 102.69147 31334 ft 385 kts 305°
2026-05-09 14:05 52.65646 102.65505 31746 ft 387 kts 305°
2026-05-09 14:05 52.67088 102.61832 32124 ft 390 kts 305°
2026-05-09 14:06 52.68510 102.58205 32579 ft 390 kts 305°
2026-05-09 14:06 52.69957 102.54505 33102 ft 388 kts 305°
2026-05-09 14:06 52.71373 102.50884 33581 ft 386 kts 305°
2026-05-09 14:06 52.72797 102.47235 34044 ft 385 kts 305°
2026-05-09 14:07 52.74202 102.43632 34460 ft 384 kts 305°
2026-05-09 14:07 52.75618 102.39993 34814 ft 385 kts 305°
2026-05-09 14:07 52.77029 102.36364 35075 ft 386 kts 305°
2026-05-09 14:07 52.78461 102.32671 35325 ft 388 kts 304°
2026-05-09 14:08 52.79874 102.29009 35569 ft 389 kts 304°
2026-05-09 14:08 52.81296 102.25320 35823 ft 389 kts 304°
2026-05-09 14:08 52.82737 102.21583 35981 ft 391 kts 304°
2026-05-09 14:08 52.84124 102.17983 35993 ft 392 kts 304°
2026-05-09 14:09 52.86967 102.10595 35999 ft 392 kts 304°
2026-05-09 14:09 52.89849 102.03085 35996 ft 392 kts 304°
2026-05-09 14:10 52.94160 101.91811 36011 ft 393 kts 304°
2026-05-09 14:11 52.96913 101.84585 36015 ft 393 kts 304°
2026-05-09 14:11 52.99708 101.77228 36009 ft 393 kts 304°
2026-05-09 14:12 53.02467 101.69951 36011 ft 392 kts 304°
2026-05-09 14:12 53.05238 101.62620 36022 ft 393 kts 304°
2026-05-09 14:13 53.08015 101.55246 36023 ft 392 kts 303°
2026-05-09 14:15 53.19044 101.25829 36030 ft 391 kts 303°
2026-05-09 14:15 53.21794 101.18413 36030 ft 390 kts 303°
2026-05-09 14:16 53.24528 101.11024 36036 ft 390 kts 302°
2026-05-09 14:16 53.27255 101.03622 36033 ft 390 kts 302°
2026-05-09 14:17 53.30010 100.96137 36035 ft 389 kts 302°
2026-05-09 14:17 53.32734 100.88704 36034 ft 389 kts 302°
2026-05-09 14:18 53.35478 100.81200 36036 ft 390 kts 303°
2026-05-09 14:18 53.38231 100.73652 36035 ft 390 kts 302°
2026-05-09 14:19 53.40947 100.66178 36041 ft 390 kts 302°
2026-05-09 14:19 53.43687 100.58614 36039 ft 389 kts 302°
2026-05-09 14:20 53.46403 100.51099 36039 ft 388 kts 302°
2026-05-09 14:20 53.49133 100.43523 36043 ft 389 kts 302°
2026-05-09 14:21 53.53200 100.32182 36047 ft 389 kts 301°
2026-05-09 14:21 53.55882 100.24654 36046 ft 390 kts 302°
2026-05-09 14:22 53.58564 100.17116 36046 ft 389 kts 302°
2026-05-09 14:22 53.61247 100.09557 36045 ft 389 kts 302°
2026-05-09 14:23 53.63913 100.02037 36042 ft 389 kts 302°
2026-05-09 14:23 53.66533 99.94621 36044 ft 389 kts 302°
2026-05-09 14:24 53.69192 99.87071 36034 ft 389 kts 302°
2026-05-09 14:24 53.71866 99.79458 36037 ft 390 kts 301°
2026-05-09 14:25 53.74552 99.71780 36029 ft 389 kts 301°
2026-05-09 14:25 53.77216 99.64146 36028 ft 390 kts 301°
2026-05-09 14:26 53.79905 99.56418 36021 ft 389 kts 301°
2026-05-09 14:26 53.82583 99.48693 36020 ft 389 kts 302°
2026-05-09 14:27 53.85270 99.40920 36016 ft 390 kts 301°
2026-05-09 14:27 53.87936 99.33182 36014 ft 390 kts 301°
2026-05-09 14:28 53.90615 99.25358 36010 ft 391 kts 300°
2026-05-09 14:28 53.93273 99.17584 36006 ft 391 kts 301°
2026-05-09 14:29 53.95924 99.09815 35998 ft 391 kts 301°
2026-05-09 14:29 53.98552 99.02100 35999 ft 391 kts 301°
2026-05-09 14:30 54.01188 98.94344 36003 ft 391 kts 301°
2026-05-09 14:30 54.03832 98.86523 36003 ft 392 kts 300°
2026-05-09 14:31 54.06488 98.78625 36000 ft 392 kts 300°
2026-05-09 14:31 54.09112 98.70799 35998 ft 391 kts 300°
2026-05-09 14:32 54.11763 98.62915 36006 ft 392 kts 300°
2026-05-09 14:32 54.14394 98.55100 36009 ft 391 kts 300°
2026-05-09 14:33 54.17001 98.47292 36007 ft 392 kts 300°
2026-05-09 14:33 54.19597 98.39471 36010 ft 391 kts 300°
2026-05-09 14:34 54.22192 98.31617 36015 ft 392 kts 299°
2026-05-09 14:34 54.24749 98.23834 36013 ft 392 kts 299°
2026-05-09 14:35 54.27359 98.15879 36015 ft 392 kts 299°